Location: Raleigh
(35.7720°N, 78.6390°W)
Time: 07:47:21
(UTC-04:00)

Amateur Radio Satellites - All Passes

Search period start: 01 May 2016 07:17
Search period end: 02 May 2016 07:17
Location: Raleigh, 35.7720°N, 78.6390°W

Satellite Date Start Highest point End Downlink Frequencies (MHz)
Time Altitude Azimuth
CUTE-I 01 May 07:21:21 07:26:36 58° 101° (E) 07:31:50 437.470
ISS 01 May 07:26:18 07:29:00 24° 131° (SE) 07:31:42 145.825
STRAND 1 01 May 07:32:26 07:37:29 67° 75° (ENE) 07:42:33 437.568
AIST 2 01 May 07:38:15 07:41:53 30° 247° (WSW) 07:45:30 435.215
M-CUBED/EXP-1 PRIME 01 May 07:38:57 07:41:59 22° 99° (E) 07:44:50 437.505
GOMX 1 01 May 07:44:36 07:49:54 51° 98° (E) 07:54:57 467.674
PRISM 01 May 07:44:53 07:47:09 15° 66° (ENE) 07:49:24 437.425
DOVE 4 01 May 07:51:10 07:55:29 27° 94° (E) 07:59:36 437.250
Cosmos 2491 01 May 07:51:22 08:00:12 83° 277° (W) 08:09:06 435.465 / 435.565
HO-68 01 May 07:54:04 07:57:07 13° 91° (E) 08:00:09 435.675
RS-15 01 May 07:56:54 08:09:19 85° 61° (ENE) 08:21:36 29.354- 29.394
LilacSat-2 01 May 07:58:01 08:01:37 43° 286° (WNW) 08:05:12 437.200
AUBIESAT-1 01 May 07:59:01 08:02:28 31° 101° (ESE) 08:05:41 437.475
BRITE-PL 01 May 08:00:38 08:06:13 57° 286° (WNW) 08:11:41 437.365/2234.400
Cubesat XI-IV 01 May 08:05:12 08:10:23 53° 287° (WNW) 08:15:32 437.490
Cosmos 2504 01 May 08:05:24 08:12:52 56° 80° (E) 08:20:51 435.465 / 435.565
NOAA 15 01 May 08:10:48 08:15:26 31° 291° (WNW) 08:20:02 137.62
CUTE 1.7 + AOD 2 01 May 08:17:36 08:19:15 12° 92° (E) 08:20:54 437.475
SO-50 01 May 08:41:17 08:45:54 40° 305° (NW) 08:50:34 436.795
SEEDS 01 May 08:47:05 08:50:11 20° 95° (E) 08:53:16 437.485
CINEMA 3 01 May 08:48:37 08:52:44 31° 96° (E) 08:56:40 145.822/145.860
COMPASS 1 01 May 08:54:17 08:57:01 17° 94° (E) 08:59:44 437.405
NOAA 18 01 May 09:00:01 09:02:45 14° 298° (WNW) 09:05:30 137.9125
ISS 01 May 09:02:30 09:05:22 28° 326° (NW) 09:08:15 145.825
CUTE-I 01 May 09:02:59 09:06:07 16° 296° (WNW) 09:09:16 437.470
M-CUBED/EXP-1 PRIME 01 May 09:13:25 09:16:27 22° 296° (WNW) 09:19:19 437.505
YUBILEINY 01 May 09:13:37 09:17:16 13° 283° (WNW) 09:20:55 435.215
STRAND 1 01 May 09:15:21 09:17:04 12° 269° (W) 09:18:47 437.568
CANX-2 01 May 09:17:56 09:22:10 80° 101° (ESE) 09:26:23 2200.000
PRISM 01 May 09:18:20 09:22:06 37° 261° (W) 09:25:55 437.425
GOMX 1 01 May 09:23:46 09:27:28 19° 295° (WNW) 09:31:04 467.674
AAUSAT CUBESAT 2 01 May 09:26:10 09:29:54 32° 97° (E) 09:33:38 437.432
DOVE 4 01 May 09:28:41 09:33:05 29° 291° (WNW) 09:37:17 437.250
Oscar 11 01 May 09:30:55 09:33:14 14° 93° (E) 09:35:31 145.826/435.025
TIGRISAT 01 May 09:33:45 09:33:55 10° 64° (ENE) 09:34:05 435.000
AUBIESAT-1 01 May 09:34:21 09:36:39 15° 299° (WNW) 09:38:51 437.475
HO-68 01 May 09:38:24 09:45:35 90° 20° (NNE) 09:52:45 435.675
FUNcube-1 01 May 09:39:56 09:42:05 14° 92° (E) 09:44:14 145.935
UWE-3 01 May 09:45:03 09:48:40 27° 96° (E) 09:52:12 435.000/436.395/437.385
CUBEBUG 2 01 May 09:48:14 09:52:23 44° 99° (E) 09:56:23 437.445
CUTE 1.7 + AOD 2 01 May 09:51:16 09:55:18 45° 286° (WNW) 09:59:20 437.475
Cosmos 2491 01 May 09:54:00 09:58:24 14° 296° (WNW) 10:02:50 435.465 / 435.565
ANTELSAT 01 May 09:54:29 09:57:45 19° 68° (ENE) 10:01:00 437.575/2403.000
Cosmos 2504 01 May 09:59:53 10:05:43 24° 275° (W) 10:11:52 435.465 / 435.565
RS-15 01 May 10:11:34 10:20:17 23° 260° (W) 10:29:00 29.354- 29.394
ZACube-1 01 May 10:19:36 10:23:39 45° 99° (E) 10:27:37 437.345
SEEDS 01 May 10:22:18 10:25:51 27° 289° (WNW) 10:29:24 437.485
CINEMA 3 01 May 10:26:10 10:29:38 21° 292° (WNW) 10:32:58 145.822/145.860
COMPASS 1 01 May 10:28:56 10:32:38 32° 288° (WNW) 10:36:19 437.405
UNISAT 6 01 May 10:47:08 10:51:47 73° 77° (ENE) 10:56:24 437.425
DELFI C3 01 May 10:54:27 10:58:25 69° 102° (ESE) 11:02:23 145.870
NANOSAT C BR1 01 May 10:57:02 10:59:32 15° 67° (ENE) 11:02:04 145.865
PHONESAT 2.4 01 May 11:00:53 11:03:58 56° 154° (SSE) 11:07:05 2401.200-2431.200
GONETS M04 01 May 11:02:23 11:08:16 19° 67° (ENE) 11:14:05
AAUSAT CUBESAT 2 01 May 11:02:25 11:05:07 17° 292° (WNW) 11:07:49 437.432
TIGRISAT 01 May 11:05:17 11:09:58 75° 259° (WSW) 11:14:36 435.000
Oscar 11 01 May 11:05:28 11:09:31 41° 287° (WNW) 11:13:32 145.826/435.025
FUNcube-1 01 May 11:14:37 11:18:30 38° 287° (WNW) 11:22:20 145.935
UWE-3 01 May 11:21:47 11:24:57 21° 291° (WNW) 11:28:05 435.000/436.395/437.385
CUBEBUG 2 01 May 11:26:25 11:28:33 14° 294° (WNW) 11:30:39 437.445
HO-68 01 May 11:28:25 11:32:19 16° 303° (WNW) 11:36:12 435.675
ANTELSAT 01 May 11:29:51 11:34:10 37° 262° (W) 11:38:29 437.575/2403.000
HUMSAT D 01 May 11:38:25 11:42:31 84° 283° (WNW) 11:46:35 437.325/437.525
QB50P2 01 May 11:46:09 11:50:24 65° 75° (ENE) 11:54:39 145.880/145.840
CUBEBUG 1 01 May 11:47:52 11:50:07 14° 93° (E) 11:52:22 437.445
POLYITAN 1 01 May 11:48:16 11:52:31 66° 76° (ENE) 11:56:48 437.675
DUCHIFAT 1 01 May 11:48:21 11:52:32 58° 74° (ENE) 11:56:44 145.980
AIST 1 01 May 11:51:14 11:55:09 30° 78° (ENE) 11:59:01
POPSAT HIP 1 01 May 11:51:21 11:55:36 70° 76° (ENE) 11:59:53 437.405
QB50P1 01 May 11:54:45 11:59:01 79° 77° (ENE) 12:03:19 145.935-145.965
ZACube-1 01 May 11:57:41 11:59:30 13° 294° (WNW) 12:01:17 437.345
JAS-2 01 May 11:58:46 12:01:16 13° 56° (ENE) 12:03:51 435.910
VELOX 1 01 May 12:09:15 12:12:56 25° 96° (E) 12:16:35 145.980
DX 1 01 May 12:12:23 12:15:54 23° 96° (E) 12:19:24 434.975-435.025
Cosmos 2499 01 May 12:17:11 12:23:57 32° 75° (ENE) 12:31:07 435.465 / 435.565
UKube-1 01 May 12:22:04 12:25:37 24° 96° (E) 12:29:08 .
AO-85 01 May 12:22:58 12:26:47 20° 108° (ESE) 12:30:37 145.980
NANOSAT C BR1 01 May 12:30:55 12:34:55 39° 261° (W) 12:38:57 145.865
BUGSAT 1 01 May 12:37:31 12:41:43 77° 258° (WSW) 12:45:59 437.445
PHONESAT 2.4 01 May 12:37:56 12:40:55 39° 350° (N) 12:43:56 2401.200-2431.200
AISAT 01 May 12:40:31 12:44:58 61° 101° (ESE) 12:49:21 437.250
50 SAT 01 May 12:41:04 12:44:44 76° 102° (ESE) 12:48:23 437.505
Oscar 19 01 May 12:50:51 12:54:30 20° 66° (ENE) 12:58:09 437.125/150
ESTCUBE 1 01 May 12:52:01 12:56:33 72° 283° (WNW) 13:01:03 437.505/2401.250
SPROUT 01 May 12:55:01 12:58:46 29° 97° (E) 13:02:29 437.525
GONETS M04 01 May 12:57:15 13:06:01 79° 266° (W) 13:14:41
CUBEBUG 1 01 May 13:22:21 13:26:37 45° 286° (WNW) 13:30:49 437.445
AIST 1 01 May 13:29:25 13:32:28 19° 272° (W) 13:35:30
TISAT 1 01 May 13:35:39 13:39:04 23° 96° (E) 13:42:27 437.305
JAS-2 01 May 13:39:21 13:45:06 89° 75° (ENE) 13:51:40 435.910
VELOX 1 01 May 13:45:37 13:49:18 26° 290° (WNW) 13:52:58 145.980
DX 1 01 May 13:48:21 13:52:01 26° 290° (WNW) 13:55:39 434.975-435.025
ISS 01 May 13:56:47 13:58:29 13° 26° (NNE) 14:00:10 145.825
UKube-1 01 May 13:58:01 14:01:34 25° 291° (WNW) 14:05:05 .
AO-85 01 May 14:01:35 14:06:54 53° 303° (WNW) 14:12:13 145.980
ITAMSAT 1 01 May 14:06:08 14:09:26 17° 65° (ENE) 14:12:43 435.822/435.867
Gurwin Techsat 1B 01 May 14:09:38 14:14:40 46° 72° (ENE) 14:19:45 435.225
Cosmos 2499 01 May 14:09:48 14:17:07 46° 270° (W) 14:24:57 435.465 / 435.565
PHONESAT 2.4 01 May 14:15:13 14:18:11 35° 7° (N) 14:21:08 2401.200-2431.200
ITUPSAT 1 01 May 14:18:03 14:19:48 12° 92° (E) 14:21:33 437.325
AISAT 01 May 14:19:29 14:20:52 11° 296° (WNW) 14:22:14 437.250
AO-7 01 May 14:22:34 14:27:47 19° 54° (NE) 14:33:01 29.400- 29.500
SWISSCUBE 01 May 14:27:06 14:30:18 18° 94° (E) 14:33:30 437.505
Oscar 19 01 May 14:28:32 14:33:26 44° 261° (W) 14:38:24 437.125/150
SPROUT 01 May 14:31:21 14:34:31 20° 291° (WNW) 14:37:39 437.525
GONETS M04 01 May 14:58:24 15:01:15 12° 284° (WNW) 15:04:06
BEESAT 01 May 14:59:33 15:03:56 36° 98° (E) 15:08:17 436.000
TISAT 1 01 May 15:11:12 15:14:36 24° 290° (WNW) 15:17:59 437.305
O/OREOS (USA 219) 01 May 15:29:57 15:34:31 73° 108° (ESE) 15:39:07 437.305
ISS 01 May 15:32:03 15:35:20 85° 217° (SW) 15:38:35 145.825
SO-50 01 May 15:37:35 15:38:49 11° 42° (NE) 15:40:03 436.795
ITAMSAT 1 01 May 15:43:25 15:48:26 52° 260° (W) 15:53:30 435.822/435.867
Gurwin Techsat 1B 01 May 15:51:08 15:54:48 19° 266° (W) 15:58:30 435.225
PHONESAT 2.4 01 May 15:52:04 15:55:14 83° 202° (SSW) 15:58:24 2401.200-2431.200
ITUPSAT 1 01 May 15:53:16 15:57:58 59° 286° (WNW) 16:02:39 437.325
KKS-1 01 May 15:54:09 15:56:50 16° 94° (E) 15:59:29 437.445
SWISSCUBE 01 May 16:03:47 16:08:13 40° 288° (WNW) 16:12:39 437.505
CUSAT 1 01 May 16:04:45 16:07:52 79° 279° (W) 16:11:54 437.405
AO-7 01 May 16:11:10 16:19:27 89° 252° (WSW) 16:27:48 29.400- 29.500
PCSat 01 May 16:15:17 16:20:38 69° 114° (ESE) 16:26:02 145.827
STARS 01 May 16:15:33 16:17:39 13° 93° (E) 16:19:43 437.465
HORYU 2 01 May 16:16:21 16:19:38 21° 68° (ENE) 16:22:56 437.375
DANDE 01 May 16:34:05 16:36:44 76° 98° (E) 16:39:55 436.750
BEESAT 01 May 16:37:58 16:41:26 21° 293° (WNW) 16:44:55 436.000
NOAA 18 01 May 17:04:12 17:06:20 12° 61° (ENE) 17:08:28 137.9125
O/OREOS (USA 219) 01 May 17:13:26 17:14:26 11° 305° (NW) 17:15:27 437.305
SO-50 01 May 17:15:21 17:20:04 84° 59° (ENE) 17:24:36 436.795
MOZHAYETS 4 01 May 17:21:11 17:25:45 82° 284° (WNW) 17:30:20
CUBESAT XI-V 01 May 17:28:06 17:29:11 11° 91° (E) 17:30:15 437.345
KKS-1 01 May 17:29:21 17:33:32 40° 288° (WNW) 17:37:41 437.445
PHONESAT 2.4 01 May 17:30:01 17:31:46 14° 216° (SW) 17:33:29 2401.200-2431.200
BRITE-PL 01 May 17:33:11 17:35:13 13° 62° (ENE) 17:37:19 437.365/2234.400
Cubesat XI-IV 01 May 17:45:53 17:49:51 22° 66° (ENE) 17:53:48 437.490
NOAA 15 01 May 17:48:24 17:53:07 35° 70° (ENE) 17:57:51 137.62
STARS 01 May 17:50:00 17:54:14 46° 287° (WNW) 17:58:24 437.465
HORYU 2 01 May 17:51:58 17:55:58 32° 262° (W) 17:59:59 437.375
PCSat 01 May 18:01:08 18:04:33 17° 311° (NW) 18:07:58 145.827
Cosmos 2491 01 May 18:05:45 18:14:04 44° 76° (ENE) 18:22:16 435.465 / 435.565
AO-7 01 May 18:08:46 18:13:06 15° 268° (W) 18:17:28 29.400- 29.500
YUBILEINY 01 May 18:16:33 18:22:48 22° 82° (E) 18:29:01 435.215
M-CUBED/EXP-1 PRIME 01 May 18:21:50 18:25:35 24° 64° (ENE) 18:29:21 437.505
BEESAT 3 01 May 18:30:13 18:33:29 25° 112° (ESE) 18:36:45 437.485
BEESAT 2 01 May 18:35:34 18:38:05 16° 110° (ESE) 18:40:36 435.950
LilacSat-2 01 May 18:36:38 18:40:27 55° 75° (ENE) 18:44:15 437.200
CUTE-I 01 May 18:40:16 18:45:34 73° 75° (ENE) 18:50:52 437.470
NOAA 18 01 May 18:40:43 18:46:15 82° 258° (WSW) 18:51:46 137.9125
JUGNU 01 May 18:41:23 18:43:42 12° 168° (SSE) 18:46:02 437.505
AUBIESAT-1 01 May 18:41:26 18:45:31 31° 66° (ENE) 18:49:34 437.475
GOMX 1 01 May 18:49:25 18:53:58 38° 71° (ENE) 18:58:47 467.674
DOVE 4 01 May 18:53:36 18:57:23 22° 67° (ENE) 19:01:17 437.250
CUBESAT XI-V 01 May 19:02:16 19:06:55 63° 285° (WNW) 19:11:33 437.345
BRITE-PL 01 May 19:08:19 19:12:57 65° 260° (W) 19:18:01 437.365/2234.400
Cubesat XI-IV 01 May 19:24:33 19:29:35 42° 261° (W) 19:34:39 437.490
NOAA 15 01 May 19:28:38 19:32:53 25° 264° (W) 19:37:11 137.62
SEEDS 01 May 19:39:02 19:39:18 10° 65° (ENE) 19:39:35 437.485
STRAND 1 01 May 19:46:16 19:50:40 28° 97° (E) 19:55:03 437.568
CINEMA 3 01 May 19:47:02 19:50:59 24° 69° (ENE) 19:54:57 145.822/145.860
M-CUBED/EXP-1 PRIME 01 May 19:55:40 19:59:54 33° 258° (WSW) 20:04:10 437.505
Cosmos 2491 01 May 20:02:54 20:10:38 36° 274° (W) 20:18:21 435.465 / 435.565
HO-68 01 May 20:03:34 20:10:25 51° 69° (ENE) 20:17:16 435.675
CANX-2 01 May 20:07:51 20:11:45 37° 73° (ENE) 20:15:39 2200.000
BEESAT 3 01 May 20:07:56 20:11:06 23° 307° (NW) 20:14:18 437.485
YUBILEINY 01 May 20:10:03 20:18:44 67° 279° (W) 20:27:25 435.215
BEESAT 2 01 May 20:11:58 20:15:37 34° 304° (NW) 20:19:18 435.950
RS-15 01 May 20:12:04 20:16:41 13° 96° (E) 20:21:22 29.354- 29.394
AAUSAT CUBESAT 2 01 May 20:14:49 20:17:16 16° 68° (ENE) 20:19:44 437.432
AUBIESAT-1 01 May 20:16:08 20:19:54 24° 260° (W) 20:23:41 437.475
CUTE-I 01 May 20:24:21 20:26:04 11° 269° (W) 20:27:47 437.470
JUGNU 01 May 20:28:19 20:31:57 17° 178° (S) 20:35:35 437.505
GOMX 1 01 May 20:28:26 20:32:09 21° 268° (W) 20:36:03 467.674
DOVE 4 01 May 20:30:01 20:34:43 40° 263° (W) 20:39:38 437.250
UWE-3 01 May 20:39:34 20:42:42 18° 68° (ENE) 20:45:51 435.000/436.395/437.385
CUTE 1.7 + AOD 2 01 May 20:40:32 20:44:45 83° 79° (E) 20:48:59 437.475
Cosmos 2504 01 May 20:40:57 20:47:57 49° 91° (E) 20:54:47 435.465 / 435.565
CUBEBUG 2 01 May 20:43:09 20:47:14 29° 71° (ENE) 20:51:16 437.445
PRISM 01 May 21:02:33 21:06:21 33° 98° (E) 21:10:08 437.425
SEEDS 01 May 21:10:21 21:14:28 58° 259° (W) 21:18:35 437.485
ZACube-1 01 May 21:12:30 21:16:20 27° 71° (ENE) 21:20:08 437.345
COMPASS 1 01 May 21:16:08 21:20:15 72° 259° (W) 21:24:23 437.405
CINEMA 3 01 May 21:23:21 21:27:52 34° 263° (W) 21:32:27 145.822/145.860
STRAND 1 01 May 21:25:24 21:29:44 29° 291° (WNW) 21:34:05 437.568
SRMSAT 01 May 21:25:45 21:28:55 15° 172° (S) 21:32:05 437.500
AIST 2 01 May 21:32:19 21:36:26 74° 301° (WNW) 21:40:35 435.215
DELFI C3 01 May 21:38:06 21:41:22 26° 71° (ENE) 21:44:39 145.870
CANX-2 01 May 21:45:19 21:47:44 15° 267° (W) 21:50:07 2200.000
AAUSAT CUBESAT 2 01 May 21:48:40 21:52:27 35° 262° (W) 21:56:14 437.432
HO-68 01 May 21:52:28 21:58:19 27° 264° (W) 22:04:12 435.675
Oscar 11 01 May 21:56:43 22:01:01 80° 256° (WSW) 22:05:22 145.826/435.025
FUNcube-1 01 May 22:06:14 22:10:47 77° 259° (W) 22:15:16 145.935
UWE-3 01 May 22:14:30 22:18:52 39° 262° (W) 22:23:10 435.000/436.395/437.385
RS-15 01 May 22:15:43 22:26:49 75° 115° (ESE) 22:38:35 29.354- 29.394
YUBILEINY 01 May 22:15:58 22:17:16 10° 299° (WNW) 22:18:33 435.215
JUGNU 01 May 22:17:09 22:20:11 14° 189° (S) 22:23:14 437.505
CUBEBUG 2 01 May 22:19:52 22:23:45 25° 264° (W) 22:27:38 437.445
HUMSAT D 01 May 22:26:36 22:30:38 44° 74° (ENE) 22:34:37 437.325/437.525
Cosmos 2504 01 May 22:35:46 22:41:32 25° 287° (WNW) 22:47:15 435.465 / 435.565
AO-85 01 May 22:36:51 22:41:33 64° 58° (ENE) 22:45:47 145.980
PRISM 01 May 22:38:39 22:41:22 17° 292° (WNW) 22:44:06 437.425
UNISAT 6 01 May 22:43:05 22:46:00 18° 94° (E) 22:48:53 437.425
ZACube-1 01 May 22:48:51 22:52:32 24° 264° (W) 22:56:12 437.345
TIGRISAT 01 May 23:00:27 23:04:06 26° 96° (E) 23:07:41 435.000
VELOX 1 01 May 23:04:42 23:07:26 16° 67° (ENE) 23:10:12 145.980
DX 1 01 May 23:06:10 23:08:39 15° 66° (ENE) 23:11:08 434.975-435.025
DELFI C3 01 May 23:13:24 23:16:12 19° 265° (W) 23:19:01 145.870
SRMSAT 01 May 23:13:39 23:17:20 17° 182° (S) 23:21:01 437.500
UKube-1 01 May 23:14:54 23:17:23 15° 66° (ENE) 23:19:52 .
50 SAT 01 May 23:17:35 23:20:26 22° 71° (ENE) 23:23:16 437.505
ANTELSAT 01 May 23:24:17 23:28:32 55° 100° (E) 23:32:42 437.575/2403.000
AISAT 01 May 23:35:03 23:39:08 37° 72° (ENE) 23:43:16 437.250
QB50P2 01 May 23:35:52 23:37:50 13° 92° (E) 23:39:47 145.880/145.840
DUCHIFAT 1 01 May 23:37:50 23:39:07 11° 92° (E) 23:40:24 145.980
POLYITAN 1 01 May 23:37:58 23:39:59 13° 93° (E) 23:41:59 437.675
POPSAT HIP 1 01 May 23:40:44 23:42:56 14° 93° (E) 23:45:08 437.405
QB50P1 01 May 23:43:47 23:46:20 15° 94° (E) 23:48:51 145.935-145.965
SPROUT 01 May 23:46:44 23:49:28 17° 67° (ENE) 23:52:12 437.525
ESTCUBE 1 01 May 23:48:24 23:52:51 72° 76° (ENE) 23:57:20 437.505/2401.250
GONETS M04 02 May 00:00:08 00:06:48 25° 82° (E) 00:13:27
HUMSAT D 02 May 00:04:34 00:06:26 13° 268° (W) 00:08:17 437.325/437.525
CUBEBUG 1 02 May 00:14:54 00:19:16 81° 258° (WSW) 00:23:41 437.445
NANOSAT C BR1 02 May 00:18:07 00:22:04 38° 98° (E) 00:25:59 145.865
AIST 1 02 May 00:18:08 00:21:18 20° 88° (E) 00:24:30
UNISAT 6 02 May 00:18:56 00:22:46 32° 289° (WNW) 00:26:35 437.425
AO-85 02 May 00:20:51 00:21:13 10° 256° (WSW) 00:21:35 145.980
BUGSAT 1 02 May 00:23:16 00:26:15 19° 94° (E) 00:29:11 437.445
TISAT 1 02 May 00:25:58 00:27:57 13° 66° (ENE) 00:29:57 437.305
RS-15 02 May 00:30:25 00:40:23 33° 319° (NW) 00:50:53 29.354- 29.394
TIGRISAT 02 May 00:37:19 00:40:38 22° 291° (WNW) 00:43:54 435.000
VELOX 1 02 May 00:39:24 00:43:33 40° 261° (W) 00:47:45 145.980
DX 1 02 May 00:40:19 00:44:26 42° 261° (W) 00:48:37 434.975-435.025
UKube-1 02 May 00:48:59 00:53:03 41° 261° (W) 00:57:10 .
50 SAT 02 May 00:51:29 00:54:09 19° 265° (W) 00:56:47 437.505
Cosmos 2499 02 May 00:52:16 00:57:43 24° 85° (E) 01:03:07 435.465 / 435.565
JAS-2 02 May 00:52:37 00:57:46 19° 90° (E) 01:02:51 435.910
CUSAT 1 02 May 01:00:57 01:02:29 11° 65° (ENE) 01:04:04 437.405
ANTELSAT 02 May 01:03:23 01:04:43 11° 295° (WNW) 01:06:03 437.575/2403.000
SRMSAT 02 May 01:03:25 01:05:44 12° 192° (SSW) 01:08:03 437.500
PCSat 02 May 01:06:23 01:11:09 30° 55° (NE) 01:15:53 145.827
QB50P2 02 May 01:09:48 01:13:50 43° 287° (WNW) 01:17:49 145.880/145.840
DUCHIFAT 1 02 May 01:11:00 01:15:04 49° 286° (WNW) 01:19:06 145.980
POLYITAN 1 02 May 01:11:58 01:15:58 42° 287° (WNW) 01:19:55 437.675
AISAT 02 May 01:12:53 01:15:43 17° 266° (W) 01:18:35 437.250
POPSAT HIP 1 02 May 01:14:54 01:18:53 40° 287° (WNW) 01:22:49 437.405
QB50P1 02 May 01:18:20 01:22:13 36° 288° (WNW) 01:26:04 145.935-145.965
SPROUT 02 May 01:21:07 01:25:06 37° 262° (W) 01:29:08 437.525
ITUPSAT 1 02 May 01:23:13 01:24:26 11° 63° (ENE) 01:25:40 437.325
SWISSCUBE 02 May 01:31:30 01:34:19 16° 65° (ENE) 01:37:07 437.505
O/OREOS (USA 219) 02 May 01:42:54 01:47:27 86° 73° (ENE) 01:51:55 437.305
GONETS M04 02 May 01:54:07 02:02:51 63° 279° (W) 02:11:37
NANOSAT C BR1 02 May 01:54:59 01:57:27 15° 293° (WNW) 01:59:55 145.865
AIST 1 02 May 01:55:05 01:58:42 26° 283° (WNW) 02:02:22
BUGSAT 1 02 May 01:57:59 02:01:37 29° 289° (WNW) 02:05:13 437.445
TISAT 1 02 May 01:59:05 02:03:10 46° 260° (W) 02:07:17 437.305
BEESAT 02 May 02:03:18 02:07:26 30° 70° (ENE) 02:11:35 436.000
Gurwin Techsat 1B 02 May 02:29:20 02:33:30 23° 95° (E) 02:37:38 435.225
JAS-2 02 May 02:35:30 02:43:20 80° 286° (WNW) 02:51:07 435.910
CUSAT 1 02 May 02:38:17 02:45:34 64° 80° (E) 02:53:35 437.405
Oscar 19 02 May 02:42:39 02:47:53 82° 103° (ESE) 02:53:04 437.125/150
Cosmos 2499 02 May 02:43:31 02:50:20 48° 281° (WNW) 02:57:09 435.465 / 435.565
PCSat 02 May 02:49:41 02:54:30 33° 251° (WSW) 02:59:17 145.827
KKS-1 02 May 02:51:15 02:52:24 11° 64° (ENE) 02:53:33 437.445
RS-15 02 May 02:52:26 02:58:26 15° 353° (N) 03:04:33 29.354- 29.394
ITUPSAT 1 02 May 02:56:53 03:01:38 72° 258° (WSW) 03:06:24 437.325
SWISSCUBE 02 May 03:07:06 03:11:41 48° 260° (W) 03:16:17 437.505
DANDE 02 May 03:10:59 03:17:36 58° 80° (E) 03:25:33 436.750
BEESAT 02 May 03:41:23 03:45:11 23° 264° (W) 03:48:59 436.000
ITAMSAT 1 02 May 03:58:55 04:04:06 71° 102° (ESE) 04:09:16 435.822/435.867
Gurwin Techsat 1B 02 May 04:08:38 04:13:30 38° 290° (WNW) 04:18:22 435.225
AO-7 02 May 04:16:26 04:23:59 37° 99° (E) 04:31:29 29.400- 29.500
MOZHAYETS 4 02 May 04:19:53 04:24:25 66° 76° (ENE) 04:28:57
CUSAT 1 02 May 04:21:33 04:27:16 25° 272° (W) 04:33:22 437.405
JAS-2 02 May 04:22:58 04:27:09 16° 302° (WNW) 04:31:23 435.910
KKS-1 02 May 04:23:56 04:28:23 64° 259° (W) 04:32:50 437.445
Oscar 19 02 May 04:25:03 04:26:27 11° 299° (WNW) 04:27:51 437.125/150
BEESAT 3 02 May 04:26:54 04:30:52 81° 59° (ENE) 04:34:47 437.485
BEESAT 2 02 May 04:32:21 04:36:15 51° 58° (ENE) 04:40:07 435.950
STARS 02 May 04:43:12 04:47:38 78° 258° (WSW) 04:52:06 437.465
DANDE 02 May 04:54:45 05:00:12 25° 270° (W) 05:06:23 436.750
RS-15 02 May 05:08:47 05:17:49 23° 30° (NNE) 05:26:54 29.354- 29.394
ITAMSAT 1 02 May 05:40:41 05:42:55 13° 298° (WNW) 05:45:09 435.822/435.867
HORYU 2 02 May 05:45:11 05:49:33 58° 101° (E) 05:53:53 437.375
AIST 2 02 May 05:56:39 06:00:16 28° 54° (NE) 06:03:52 435.215
CUBESAT XI-V 02 May 06:02:23 06:06:58 89° 68° (ENE) 06:11:35 437.345
NOAA 15 02 May 06:07:25 06:10:41 16° 93° (E) 06:13:56 137.62
AO-7 02 May 06:08:59 06:16:45 45° 295° (WNW) 06:24:32 29.400- 29.500
BEESAT 2 02 May 06:12:42 06:13:36 11° 252° (WSW) 06:14:31 435.950
YUBILEINY 02 May 06:23:47 06:32:17 54° 79° (E) 06:40:45 435.215
ISS 02 May 06:35:30 06:36:44 12° 127° (SE) 06:37:57 145.825
Cosmos 2504 02 May 06:37:50 06:41:32 14° 67° (ENE) 06:45:19 435.465 / 435.565
GOMX 1 02 May 06:55:28 06:58:44 16° 91° (E) 07:01:54 467.674
STRAND 1 02 May 06:59:26 07:03:53 31° 69° (ENE) 07:08:19 437.568
CUTE-I 02 May 07:00:31 07:05:23 36° 98° (E) 07:10:15 437.470
NOAA 18 02 May 07:05:49 07:11:10 54° 101° (ESE) 07:16:28 137.9125
